| time (UTC) | temp F | wind direction | speed MPH | gust MPH | rain 1hr in | rain 24hr in | rain mn in | humidity % | barometer mb |
| 20260504044629 | 50 | 300 | 0.0 | 1.0 | 0.00 | 0.00 | 0.00 | 51 | 1014.8 |
| 20260504043027 | 50 | 317 | 0.0 | 2.0 | 0.00 | 0.00 | 0.00 | 51 | 1014.7 |
| 20260504041528 | 51 | 271 | 0.0 | 3.0 | 0.00 | 0.00 | 0.00 | 50 | 1014.8 |
| 20260504040024 | 51 | 288 | 0.0 | 2.0 | 0.00 | 0.00 | 0.00 | 50 | 1014.6 |
| 20260504034520 | 51 | 315 | 0.0 | 3.0 | 0.00 | 0.00 | 0.00 | 50 | 1014.5 |
| 20260504033022 | 51 | 284 | 0.0 | 1.0 | 0.00 | 0.00 | 0.00 | 50 | 1014.5 |
| 20260504031520 | 51 | 305 | 0.0 | 1.0 | 0.00 | 0.00 | 0.00 | 49 | 1014.4 |
| 20260504030030 | 51 | 289 | 0.0 | 1.0 | 0.00 | 0.00 | 0.00 | 50 | 1014.3 |
| 20260504024519 | 51 | 255 | 0.0 | 1.0 | 0.00 | 0.00 | 0.00 | 49 | 1014.3 |
| 20260504023018 | 52 | 332 | 1.0 | 3.0 | 0.00 | 0.00 | 0.00 | 48 | 1014.1 |
| 20260504021518 | 51 | 320 | 0.0 | 2.0 | 0.00 | 0.00 | 0.00 | 48 | 1014.3 |
| 20260504020020 | 51 | 269 | 0.0 | 1.0 | 0.00 | 0.00 | 0.00 | 49 | 1014.3 |
| 20260504014517 | 51 | 304 | 0.0 | 0.0 | 0.00 | 0.00 | 0.00 | 49 | 1014.2 |
| 20260504013016 | 51 | 304 | 0.0 | 0.0 | 0.00 | 0.00 | 0.00 | 49 | 1014.1 |
| 20260504011518 | 50 | 297 | 0.0 | 1.0 | 0.00 | 0.00 | 0.00 | 51 | 1013.9 |
| 20260504010015 | 51 | 297 | 0.0 | 1.0 | 0.00 | 0.00 | 0.00 | 50 | 1013.8 |
| 20260504004521 | 52 | 285 | 0.0 | 0.0 | 0.00 | 0.00 | 0.00 | 49 | 1013.9 |
| 20260504003013 | 53 | 285 | 0.0 | 1.0 | 0.00 | 0.00 | 0.00 | 47 | 1013.7 |
| 20260504001514 | 54 | 285 | 0.0 | 1.0 | 0.00 | 0.00 | 0.00 | 45 | 1013.5 |
| 20260504000013 | 55 | 285 | 0.0 | 1.0 | 0.00 | 0.00 | 0.00 | 44 | 1013.4 |
| 20260503234525 | 56 | 251 | 0.0 | 4.0 | 0.00 | 0.00 | 0.00 | 41 | 1013.2 |
| 20260503233011 | 57 | 312 | 0.0 | 7.0 | 0.00 | 0.00 | 0.00 | 41 | 1013.0 |
| 20260503231511 | 58 | 257 | 2.0 | 7.0 | 0.00 | 0.00 | 0.00 | 39 | 1013.0 |
| 20260503230010 | 59 | 287 | 2.0 | 5.0 | 0.00 | 0.00 | 0.00 | 39 | 1013.0 |
| 20260503224513 | 58 | 266 | 3.0 | 12.0 | 0.00 | 0.00 | 0.00 | 37 | 1013.1 |
| 20260503223010 | 58 | 271 | 4.0 | 12.0 | 0.00 | 0.00 | 0.00 | 38 | 1012.9 |
| 20260503221509 | 58 | 335 | 5.0 | 13.0 | 0.00 | 0.00 | 0.00 | 37 | 1013.0 |
| 20260503220024 | 59 | 246 | 4.0 | 8.0 | 0.00 | 0.00 | 0.00 | 37 | 1013.0 |
| 20260503214508 | 59 | 275 | 5.0 | 11.0 | 0.00 | 0.00 | 0.00 | 36 | 1013.1 |
| 20260503213009 | 59 | 271 | 3.0 | 7.0 | 0.00 | 0.00 | 0.00 | 38 | 1013.0 |
| 20260503211506 | 58 | 341 | 4.0 | 10.0 | 0.00 | 0.00 | 0.00 | 37 | 1012.9 |
| 20260503210005 | 58 | 305 | 4.0 | 12.0 | 0.00 | 0.00 | 0.00 | 38 | 1013.0 |
| 20260503204504 | 57 | 8 | 3.0 | 10.0 | 0.00 | 0.00 | 0.00 | 38 | 1012.9 |
| 20260503203005 | 57 | 302 | 3.0 | 17.0 | 0.00 | 0.00 | 0.00 | 39 | 1013.0 |
| 20260503201502 | 58 | 285 | 6.0 | 15.0 | 0.00 | 0.00 | 0.00 | 38 | 1012.9 |
| 20260503200105 | 58 | 258 | 4.0 | 13.0 | 0.00 | 0.00 | 0.00 | 38 | 1013.1 |
| 20260503194558 | 57 | 279 | 5.0 | 10.0 | 0.00 | 0.00 | 0.00 | 38 | 1013.5 |
| 20260503193109 | 57 | 1 | 4.0 | 16.0 | 0.00 | 0.00 | 0.00 | 37 | 1013.5 |
| 20260503191603 | 57 | 37 | 2.0 | 8.0 | 0.00 | 0.00 | 0.00 | 42 | 1013.8 |
| 20260503190057 | 56 | 299 | 3.0 | 12.0 | 0.00 | 0.00 | 0.00 | 41 | 1013.9 |
| 20260503184606 | 56 | 271 | 4.0 | 14.0 | 0.00 | 0.00 | 0.00 | 39 | 1014.1 |
| 20260503183107 | 56 | 333 | 6.0 | 15.0 | 0.00 | 0.00 | 0.00 | 39 | 1014.3 |
| 20260503181606 | 55 | 266 | 4.0 | 11.0 | 0.00 | 0.00 | 0.00 | 41 | 1014.3 |
| 20260503180048 | 54 | 241 | 5.0 | 11.0 | 0.00 | 0.00 | 0.00 | 43 | 1014.4 |
| 20260503174546 | 52 | 224 | 3.0 | 11.0 | 0.00 | 0.00 | 0.00 | 43 | 1014.5 |
| 20260503173056 | 53 | 356 | 6.0 | 12.0 | 0.00 | 0.00 | 0.00 | 41 | 1014.6 |
| 20260503171544 | 52 | 294 | 5.0 | 16.0 | 0.00 | 0.00 | 0.00 | 45 | 1014.7 |
| 20260503081610 | 42 | 273 | 2.0 | 6.0 | 0.00 | 0.00 | 0.00 | 67 | 1012.9 |
| 20260503071541 | 41 | 299 | 1.0 | 5.0 | 0.00 | 0.00 | 0.00 | 72 | 1012.5 |